Flag for Poland Weather past 2 weeks in Gorzów Wielkopolski, Poland

Now
69 °F

Overcast.


Feels Like: 69 °F
Forecast: 57 / 84 °F
Wind: 5 mph from Northwest

Location: Gorzow Wlkp

Current Time: Jul 6, 2015 at 11:17:59 AM

Latest Report: Jul 6, 2015 at 10:00 AM


Visibility: 13 mi

Pressure: 30.03 "Hg

Humidity: 83%

Dew point: 63 °F

Location of Gorzów WielkopolskiLocation

Historic Weather in Gorzów Wielkopolski — Graph

°F

Gorzów Wielkopolski temperature yesterday

Maximum temperature yesterday: 91 °F (at 5:00 PM)
Minimum temperature yesterday: 68 °F (at 6:00 AM)
Average temperature yesterday: 81 °F

Past Weeks' High & Low Weather Summary

 TemperatureHumidityPressure
High93 °F (Jul 4, 5:00 PM)100% (Jun 23, 6:00 AM)30.34 "Hg (Jun 23, 6:00 AM)
Low47 °F (Jun 24, 3:00 AM)20% (Jul 3, 4:00 PM)29.62 "Hg (Jun 23, 3:00 AM)
Average65 °F68%30.08 "Hg
* Reported Jun 21 10:00 AM — Jul 6 10:00 AM, Gorzów Wielkopolski, Weather by CustomWeather, © 2015

Note: Actual official high and low records may vary slightly from our data, if they occured in-between our weather recording intervals... More about our weather records

Advertising

Gorzów Wielkopolski weather history for previous 24 hours

 ConditionsComfort  
Time TempWeatherWind HumidityBarometerVisibility
10:00 AM
Mon, Jul 6
69 °FOvercast.5 mph83%30.03 "Hg12 mi
9:00 AM69 °FOvercast.5 mph87%30.00 "Hg9 mi
8:00 AM70 °FOvercast.3 mph89%29.97 "Hg5 mi
7:00 AM69 °FLight rain. Overcast.1 mph92%29.92 "Hg5 mi
6:00 AM69 °FLight rain. Overcast.2 mph96%29.96 "Hg4 mi
5:00 AM69 °FSprinkles. Overcast.1 mph96%29.95 "Hg4 mi
4:00 AM69 °FRain showers. Overcast.1 mph95%29.96 "Hg2 mi
3:00 AM70 °FLight rain. Overcast.3 mph92%29.93 "Hg9 mi
2:00 AM71 °FThunderstorms. Overcast.5 mph91%29.94 "Hg16 mi
1:00 AM75 °FThundershowers. Overcast.8 mph69%29.91 "Hg7 mi
12:00 AM80 °FOvercast.2 mph53%29.87 "Hg16 mi
11:00 PM
Sun, Jul 5
80 °FOvercast.1 mph57%29.88 "Hg16 mi
10:00 PM81 °FOvercast.2 mph62%29.90 "Hg16 mi
9:00 PM84 °FOvercast.2 mph58%29.91 "Hg19 mi
8:00 PM86 °FOvercast.2 mph52%29.91 "Hg19 mi
7:00 PM89 °FOvercast.2 mph44%29.93 "Hg22 mi
6:00 PM90 °FOvercast.2 mph37%29.95 "Hg22 mi
5:00 PM91 °FPassing clouds.2 mph33%29.97 "Hg19 mi
4:00 PM91 °FPassing clouds.2 mph37%29.98 "Hg19 mi
3:00 PM90 °FPassing clouds.1 mph40%30.00 "Hg19 mi
2:00 PM89 °FScattered clouds.2 mph41%30.02 "Hg16 mi
1:00 PM88 °FPassing clouds.2 mph49%30.03 "Hg16 mi
12:00 PM84 °FScattered clouds.3 mph55%30.05 "Hg16 mi
11:00 AM80 °FPartly sunny.2 mph69%30.06 "Hg16 mi
Weather by CustomWeather, © 2015

See weather overviewHow to use our weather pages